TimeMDT,TemperatureF,Dew PointF,Humidity,Sea Level PressureIn,VisibilityMPH,Wind Direction,Wind SpeedMPH,Gust SpeedMPH,PrecipitationIn,Events,Conditions,WindDirDegrees,DateUTC
12:53 AM,70.0,34.0,27,29.52,5.0,SSW,11.5,-,N/A,,Haze,210,2013-06-20 06:53:00
1:53 AM,64.4,21.2,19,29.54,2.5,South,12.7,-,N/A,,Smoke,180,2013-06-20 07:53:00
2:15 AM,64.4,17.6,16,29.82,3.0,South,8.1,-,N/A,,Haze,180,2013-06-20 08:15:00
2:53 AM,55.4,24.8,31,29.56,3.0,South,9.2,-,N/A,,Smoke,170,2013-06-20 08:53:00
3:53 AM,64.4,19.4,18,29.55,4.0,West,13.8,17.3,N/A,,Smoke,280,2013-06-20 09:53:00
4:53 AM,60.1,41.0,49,29.60,7.0,NW,8.1,-,N/A,,Partly Cloudy,310,2013-06-20 10:53:00
5:53 AM,60.1,55.0,83,29.64,7.0,Calm,Calm,-,N/A,,Partly Cloudy,0,2013-06-20 11:53:00
6:53 AM,62.1,54.0,75,29.67,7.0,SE,3.5,-,N/A,,Partly Cloudy,140,2013-06-20 12:53:00
7:53 AM,69.1,39.9,35,29.70,10.0,NNE,5.8,-,N/A,,Partly Cloudy,30,2013-06-20 13:53:00
8:53 AM,73.0,26.1,17,29.72,10.0,NE,12.7,-,N/A,,Partly Cloudy,40,2013-06-20 14:53:00
9:53 AM,77.0,24.1,14,29.72,10.0,NNE,11.5,17.3,N/A,,Partly Cloudy,30,2013-06-20 15:53:00
10:53 AM,80.1,24.1,13,29.73,10.0,NE,12.7,16.1,N/A,,Partly Cloudy,50,2013-06-20 16:53:00
11:53 AM,81.0,24.1,12,29.73,10.0,East,9.2,18.4,N/A,,Partly Cloudy,100,2013-06-20 17:53:00
12:53 PM,84.9,21.9,10,29.68,10.0,ENE,8.1,-,N/A,,Partly Cloudy,60,2013-06-20 18:53:00
1:53 PM,87.1,24.1,10,29.67,10.0,ESE,11.5,19.6,N/A,,Scattered Clouds,110,2013-06-20 19:53:00
2:53 PM,87.1,23.0,10,29.68,10.0,Variable,6.9,17.3,N/A,,Scattered Clouds,0,2013-06-20 20:53:00
3:53 PM,88.0,25.0,10,29.63,10.0,ESE,8.1,20.7,N/A,,Scattered Clouds,110,2013-06-20 21:53:00
4:53 PM,90.0,26.1,10,29.62,10.0,NE,16.1,-,N/A,,Scattered Clouds,50,2013-06-20 22:53:00
5:53 PM,90.0,28.9,11,29.61,10.0,NE,10.4,-,N/A,,Scattered Clouds,50,2013-06-20 23:53:00
6:53 PM,84.9,34.0,16,29.61,10.0,NNE,21.9,-,N/A,,Scattered Clouds,30,2013-06-21 00:53:00
7:53 PM,79.0,34.0,20,29.62,10.0,NNE,15.0,-,N/A,,Scattered Clouds,20,2013-06-21 01:53:00
8:53 PM,77.0,39.0,25,29.63,10.0,NNE,18.4,-,N/A,,Scattered Clouds,30,2013-06-21 02:53:00
9:53 PM,73.9,46.0,37,29.64,10.0,NNE,18.4,26.5,N/A,,Scattered Clouds,20,2013-06-21 03:53:00
10:53 PM,71.1,51.1,49,29.65,10.0,NNE,13.8,-,N/A,,Scattered Clouds,20,2013-06-21 04:53:00
11:53 PM,68.0,54.0,61,29.67,10.0,NNE,9.2,-,N/A,,Partly Cloudy,30,2013-06-21 05:53:00